Vertical_Velocity
2 -1 -3 -3 -2 -2 -2 -1 -0 -1 -0 2 1 -1 0 1 0 2 -1 1 -1 -1 1 -1 -0 -1 -0 -2 -0 0 1 1 -0 -1 -0 -1 -1 -0 0 -0 -0 -0 -1
-1 -1 -2 -1 -1 0 -2 -3 0 -1 -0 -0 0 1 0 -0 2 -0 0 -1 -0 0 1 -1 -2 -2 -1 -2 -1 1 1 0 -1 -1 0 1 -0 0 -0 -1 -1 -1 0
1 -3 -3 -1 -1 -2 1 -1 -3 0 -0 -0 -1 0 -0 -0 -1 -1 0 1 -2 0 1 -0 -2 -1 -0 -1 1 1 0 -0 -1 -2 -1 0 0 -0 -0 -1 -0 -1 -1
-0 -1 -2 -2 -0 -0 -2 -1 -3 -1 -0 0 -1 -1 -0 -0 0 0 -1 2 0 -0 1 -0 -1 -1 -0 -0 -1 -1 -0 -1 -0 -1 -2 -1 -0 -0 -1 -1 -1 -1 -0
0 -0 1 -3 -2 -2 -2 -1 -1 -1 -1 -1 1 -2 0 0 1 1 0 0 2 -1 0 -0 -1 -1 0 0 -0 -0 -0 -0 -1 -1 -1 -1 -0 -2 -1 -2 -2 -1 -1
0 -1 -2 -1 -1 -0 -2 -1 -1 -3 -1 -1 -2 1 -2 -0 -0 3 2 -1 3 -0 -0 -1 -0 -1 0 1 0 -0 -0 -1 0 -1 -2 -1 -0 -1 -0 -0 -1 0 -1
-1 -0 -0 -1 0 -4 -2 -3 1 -1 -1 -1 -1 -0 -0 -1 -1 -0 2 1 1 2 -0 -0 -1 0 -1 2 1 0 0 1 -1 -0 -1 -1 0 -0 -1 -2 -0 1 -0
2 1 0 -0 -0 0 1 -1 -2 -1 -1 -2 -1 -3 -1 -0 -2 1 0 -0 2 1 0 1 -1 -0 0 -1 1 1 0 -1 0 -1 -0 -0 1 -0 -1 0 -1 -1 0
-2 5 2 -2 1 -0 2 1 2 -1 -1 -3 0 -3 -2 -1 -1 -1 1 -0 1 1 2 1 -1 0 -0 -1 1 0 0 1 0 -0 -1 -1 0 0 1 -0 -0 1 -1
2 4 1 -2 3 2 2 -1 -2 -1 1 -3 -1 1 -2 -1 1 -1 -1 -0 1 3 -0 2 -0 -1 2 -0 -1 1 0 -0 -0 0 1 -0 -1 -0 -0 -1 -2 -2 -2
-1 -4 -1 0 0 -2 -1 1 0 2 4 2 0 -0 1 -1 0 -1 -0 1 1 1 1 1 -0 -2 1 1 -2 1 1 1 1 0 0 1 -0 -1 0 0 -0 -1 -1
3 -1 2 -1 0 1 3 1 0 -3 0 -0 3 -0 2 -0 -1 0 0 -0 2 0 3 1 2 -2 -0 0 0 0 0 0 1 -0 0 0 0 -0 1 0 0 -0 -1
1 1 2 1 1 -3 6 5 -1 3 -1 2 -0 1 -0 -2 -1 1 1 -2 1 1 -2 2 2 -1 1 1 0 -0 0 1 0 1 1 1 -1 0 -1 -0 -1 -0 -0
1 0 -1 -1 2 -0 6 1 1 -2 0 -1 -1 1 0 3 -0 -1 0 1 0 2 -0 -2 1 1 -1 1 -0 -0 -0 1 1 0 -1 -1 0 1 -1 -1 0 -2 -0
4 -0 1 -1 -0 3 1 4 -2 2 -7 -1 -1 -1 1 1 3 -3 -0 -0 1 1 1 -1 -1 -0 -1 -0 -0 -1 0 1 0 -0 -1 -2 -0 0 -1 -1 -1 -1 -1
3 3 -3 -0 -2 -3 4 3 4 1 -1 -6 -1 -3 -4 -0 1 2 -3 -1 1 2 -0 -1 -3 -0 1 -0 1 -0 1 1 0 -2 0 -2 -0 -1 -1 -1 -1 -0 -0
-1 6 4 3 -4 -2 -2 1 1 3 -0 -4 -0 2 0 -0 1 2 -2 -3 0 1 0 -1 -0 1 0 -0 1 0 0 0 -1 -1 0 -1 -1 1 -1 -0 -0 -1 -1
3 2 5 4 2 -2 -0 -1 2 2 -0 -5 0 -3 1 1 -1 1 -1 -0 -1 -0 0 -0 -0 -0 1 0 -0 2 2 -0 -1 -0 -0 -0 -1 -1 -0 -1 1 -1 -2
3 2 3 5 5 2 2 -0 1 -0 5 0 -3 -0 -1 2 2 2 -1 -2 -1 -1 -0 -1 -0 -0 -0 1 -1 -1 1 -0 0 -1 0 0 1 -0 -1 0 1 -1 -3
-6 2 -1 -2 4 6 1 -0 1 2 -6 -4 19 -5 -0 -1 -2 2 1 -1 -0 -1 -2 0 -2 1 -0 -1 0 1 1 0 -0 -1 -0 -1 -2 -0 -2 -0 -1 -1 -4
-9 -3 0 1 8 4 0 -3 -0 1 3 -7 -2 8 -1 -2 12 -2 9 -1 -0 3 -1 -4 -3 -2 0 0 0 1 1 0 1 -1 -1 0 -2 -0 -1 0 -0 -2 -3
3 -5 -2 0 3 1 0 5 -2 1 2 -7 -6 -7 0 -1 2 1 -2 1 5 -0 -0 -1 -0 -0 -1 2 1 -2 2 1 2 1 -1 -2 -3 -2 -1 -1 -2 -1 -1
-6 -3 2 4 -1 7 6 6 -1 -6 -8 -10 -8 4 7 -2 -1 1 2 4 -2 -3 1 1 -1 -0 1 -0 -1 1 1 1 -1 -1 0 1 -1 -1 -0 -1 -2 -1 0
8 2 -6 -5 7 2 9 -0 4 1 2 7 1 2 -1 2 -0 -0 5 15 10 8 -0 2 -0 2 -2 3 0 1 -1 -1 -1 -1 -4 1 0 -1 4 -2 -1 -2 -3
4 5 5 -0 11 3 10 7 7 1 5 6 -3 -1 -4 2 2 -11 23 0 4 4 4 0 1 2 0 2 1 1 -1 -1 -0 -3 -1 -3 1 -2 -1 -1 -3 3 -1
-3 -2 3 6 2 4 -0 1 3 3 1 -3 0 1 -1 2 4 -2 -2 2 22 11 -4 -2 1 1 0 -2 2 -1 2 -0 -6 -1 -2 -5 -3 -1 1 -1 1 -0 1
Height
5860 5862 5864 5865 5867 5868 5872 5874 5875 5875 5877 5878 5879 5880 5882 5883 5882 5884 5885 5884 5884 5884 5884 5884 5884 5883 5882 5882 5882 5883 5884 5884 5884 5883 5882 5881 5880 5879 5878 5878 5877 5875 5874
5855 5858 5860 5862 5864 5866 5868 5872 5874 5875 5876 5878 5879 5880 5880 5882 5882 5882 5884 5885 5885 5885 5885 5885 5884 5883 5883 5883 5883 5884 5884 5884 5884 5884 5883 5882 5881 5880 5879 5878 5877 5876 5874
5851 5854 5857 5860 5862 5863 5866 5868 5872 5873 5874 5876 5878 5879 5881 5880 5881 5881 5883 5884 5885 5885 5885 5886 5885 5884 5884 5884 5884 5885 5885 5885 5885 5885 5884 5883 5882 5881 5880 5879 5877 5876 5874
5846 5850 5853 5857 5860 5862 5864 5865 5868 5871 5872 5874 5876 5878 5879 5880 5880 5881 5882 5883 5885 5885 5885 5886 5885 5884 5884 5884 5884 5885 5885 5885 5885 5885 5885 5884 5883 5882 5880 5879 5878 5876 5874
5843 5846 5849 5852 5856 5859 5861 5862 5865 5867 5870 5872 5873 5876 5877 5879 5880 5881 5881 5881 5884 5885 5885 5885 5885 5885 5884 5885 5884 5885 5885 5885 5885 5885 5885 5884 5884 5882 5881 5880 5878 5876 5874
5840 5842 5843 5846 5851 5855 5858 5860 5862 5865 5867 5869 5871 5873 5875 5876 5878 5880 5880 5880 5883 5884 5885 5885 5885 5885 5885 5885 5884 5884 5884 5885 5885 5885 5884 5884 5883 5883 5881 5880 5878 5877 5874
5837 5839 5840 5842 5846 5850 5854 5857 5859 5861 5863 5866 5868 5870 5872 5874 5875 5879 5880 5879 5881 5883 5884 5885 5884 5885 5886 5885 5884 5884 5885 5885 5885 5885 5884 5884 5883 5882 5881 5880 5878 5876 5874
5834 5837 5838 5840 5841 5843 5846 5850 5853 5857 5860 5862 5865 5866 5869 5871 5873 5876 5877 5878 5880 5881 5883 5884 5883 5884 5885 5884 5885 5884 5884 5884 5884 5885 5885 5884 5883 5882 5881 5879 5878 5876 5874
5830 5832 5834 5836 5838 5839 5842 5844 5847 5851 5856 5858 5861 5863 5866 5868 5870 5873 5875 5876 5878 5879 5881 5883 5882 5882 5884 5883 5883 5883 5883 5883 5884 5884 5884 5884 5883 5882 5880 5878 5877 5875 5873
5825 5827 5828 5831 5834 5835 5838 5840 5841 5844 5848 5853 5856 5859 5862 5865 5868 5870 5872 5873 5876 5877 5879 5881 5881 5881 5882 5882 5882 5883 5882 5882 5882 5883 5883 5883 5882 5881 5879 5877 5875 5874 5871
5818 5821 5823 5825 5829 5831 5833 5836 5837 5839 5842 5845 5851 5854 5857 5861 5864 5866 5869 5870 5873 5875 5876 5878 5880 5880 5881 5881 5881 5881 5881 5881 5881 5881 5881 5881 5881 5879 5877 5875 5873 5871 5869
5810 5814 5817 5819 5822 5826 5827 5830 5832 5834 5836 5841 5844 5849 5853 5856 5859 5862 5865 5868 5870 5872 5874 5876 5877 5877 5878 5879 5879 5879 5879 5879 5879 5879 5879 5879 5878 5877 5876 5873 5871 5869 5866
5802 5805 5809 5813 5815 5819 5822 5824 5826 5828 5831 5835 5839 5843 5848 5852 5855 5858 5861 5863 5866 5868 5870 5873 5874 5875 5875 5876 5876 5876 5876 5877 5877 5877 5877 5877 5876 5875 5874 5872 5870 5868 5865
5793 5796 5799 5803 5808 5810 5815 5818 5821 5823 5827 5829 5833 5837 5841 5846 5850 5854 5856 5858 5861 5864 5867 5869 5871 5872 5872 5873 5873 5873 5873 5874 5875 5875 5875 5874 5874 5873 5872 5870 5868 5866 5863
5781 5786 5789 5793 5798 5802 5805 5810 5813 5817 5821 5824 5826 5830 5835 5840 5844 5848 5850 5853 5856 5860 5862 5865 5866 5868 5869 5870 5870 5870 5870 5871 5872 5871 5871 5871 5871 5870 5868 5867 5865 5863 5860
5767 5774 5780 5783 5787 5793 5798 5801 5805 5809 5813 5818 5820 5824 5828 5834 5839 5843 5844 5848 5852 5855 5858 5860 5862 5863 5865 5866 5867 5867 5868 5868 5867 5869 5869 5869 5868 5867 5866 5864 5862 5859 5857
5753 5760 5766 5772 5775 5782 5787 5791 5795 5800 5804 5809 5812 5815 5819 5825 5831 5837 5839 5843 5847 5850 5853 5856 5858 5859 5860 5861 5862 5864 5864 5864 5864 5865 5865 5865 5864 5863 5862 5861 5859 5856 5854
5740 5746 5754 5761 5766 5770 5776 5780 5786 5791 5794 5800 5803 5807 5811 5816 5822 5828 5832 5836 5840 5845 5848 5850 5852 5854 5856 5857 5858 5860 5861 5860 5861 5861 5861 5861 5860 5860 5858 5857 5855 5853 5850
5722 5729 5735 5744 5754 5759 5765 5769 5774 5781 5786 5791 5793 5798 5804 5808 5812 5819 5824 5829 5834 5840 5843 5844 5847 5848 5851 5852 5853 5855 5856 5857 5858 5857 5857 5857 5856 5856 5854 5853 5852 5850 5847
5703 5711 5718 5726 5736 5744 5749 5756 5761 5770 5775 5778 5772 5786 5793 5799 5803 5809 5814 5820 5826 5832 5836 5839 5842 5843 5845 5847 5848 5850 5851 5852 5852 5852 5852 5852 5851 5850 5849 5848 5848 5846 5843
5680 5690 5698 5706 5716 5724 5734 5741 5748 5756 5763 5769 5775 5780 5787 5791 5796 5800 5804 5809 5817 5826 5830 5831 5834 5837 5840 5842 5843 5844 5846 5847 5847 5847 5847 5846 5846 5845 5845 5843 5842 5842 5840
5658 5668 5678 5687 5695 5707 5717 5726 5733 5741 5749 5754 5763 5768 5774 5781 5788 5792 5797 5802 5809 5817 5822 5824 5828 5831 5833 5835 5837 5837 5840 5841 5841 5841 5842 5841 5841 5840 5839 5837 5838 5837 5836
5637 5644 5655 5664 5675 5688 5699 5708 5716 5724 5732 5742 5748 5757 5764 5771 5778 5784 5789 5791 5799 5806 5812 5815 5819 5823 5826 5828 5829 5831 5832 5834 5833 5835 5836 5836 5835 5834 5834 5833 5832 5832 5830
5612 5617 5627 5640 5653 5664 5678 5687 5699 5709 5719 5728 5738 5745 5752 5762 5769 5775 5780 5784 5789 5792 5801 5806 5810 5814 5817 5820 5822 5824 5825 5826 5827 5828 5828 5828 5828 5828 5828 5827 5825 5824 5824
5580 5585 5596 5610 5626 5639 5650 5665 5679 5691 5704 5713 5722 5731 5743 5751 5758 5769 5770 5773 5776 5782 5790 5795 5800 5806 5808 5812 5814 5815 5817 5818 5819 5820 5819 5821 5821 5821 5821 5819 5819 5819 5819
5557 5559 5567 5580 5598 5613 5628 5641 5659 5675 5689 5699 5710 5723 5733 5741 5747 5755 5762 5764 5768 5771 5778 5786 5790 5796 5800 5802 5805 5806 5809 5810 5810 5811 5811 5812 5812 5813 5813 5811 5810 5811 5813